This is the latest recevied weather packets stored in our database for station/object KA9CBS. If no packets are shown the sender has not sent any weather packets the latest 10 day(s).
| Time | Temp. | Humidity | Pressure | Rain* | Wind** | Luminosity | Snow |
|---|---|---|---|---|---|---|---|
| 1788045795 | 28.89° C | 62% | 1019.3 hPa | 0 mm | - | 49 W/m² | - |
| 1788045491 | 28.89° C | 62% | 1019.5 hPa | 0 mm | - | 55 W/m² | - |
| 1788045186 | 28.89° C | 64% | 1019.4 hPa | 0 mm | - | 59 W/m² | - |
| 1788044881 | 28.89° C | 61% | 1019.3 hPa | 0 mm | - | 65 W/m² | - |
| 1788044575 | 29.44° C | 60% | 1019.2 hPa | 0 mm | - | 74 W/m² | - |
| 1788044274 | 29.44° C | 59% | 1019.3 hPa | 0 mm | - | 84 W/m² | - |
| 1788043970 | 29.44° C | 59% | 1019.2 hPa | 0 mm | - | 98 W/m² | - |
| 1788043666 | 29.44° C | 59% | 1019.2 hPa | 0 mm | - | 127 W/m² | - |
| 1788043361 | 29.44° C | 59% | 1019.1 hPa | 0 mm | - | 109 W/m² | - |
| 1788043060 | 28.89° C | 59% | 1019 hPa | 0 mm | - | 100 W/m² | - |
| 1788042756 | 29.44° C | 59% | 1019.6 hPa | 0 mm | - | 91 W/m² | - |
| 1788042454 | 29.44° C | 58% | 1019.4 hPa | 0 mm | - | 89 W/m² | - |
| 1788042150 | 30° C | 57% | 1019.6 hPa | 0 mm | - | 104 W/m² | - |
| 1788041845 | 30° C | 56% | 1019.4 hPa | 0 mm | - | 114 W/m² | - |
| 1788041540 | 30° C | 55% | 1019.6 hPa | 0 mm | - | 118 W/m² | - |
| 1788041235 | 30° C | 54% | 1019.6 hPa | 0 mm | - | 120 W/m² | - |
| 1788040933 | 30° C | 54% | 1019.5 hPa | 0 mm | - | 124 W/m² | - |
| 1788040632 | 30° C | 52% | 1019.5 hPa | 0 mm | - | 126 W/m² | - |
| 1788040328 | 30° C | 51% | 1019.4 hPa | 0 mm | - | 124 W/m² | - |
| 1788040028 | 30° C | 50% | 1019.4 hPa | 0 mm | - | 124 W/m² | - |
| 1788039723 | 30.56° C | 49% | 1019.6 hPa | 0 mm | - | 130 W/m² | - |
| 1788039418 | 31.11° C | 47% | 1019.7 hPa | 0 mm | - | 186 W/m² | - |
| 1788039113 | 31.67° C | 50% | 1019.6 hPa | 0 mm | - | 378 W/m² | - |
| 1788038809 | 31.11° C | 48% | 1019.8 hPa | 0 mm | - | 382 W/m² | - |
| 1788038508 | 31.11° C | 51% | 1019.7 hPa | 0 mm | - | 277 W/m² | - |
* Rain latest hour (hover to see other rain measurements)
** Current wind speed in m/s (hover to see current wind gust speed)